Regional Weather Roundup
Issued by NWS

Home | Current Version | Previous Version | Text Only | Print | Product List | Glossary Off
Versions: 1 2 3 4 5 6 7 8 9 10 11 12 13 14 15 16 17 18 19 20 21 22 23 24 25 26 27 28 29 30 31 32 33 34 35 36 37 38 39 40 41 42 43 44 45 46 47 48 49 50

000
ASUS43 KLOT 260703
RWRIL

ILLINOIS REGIONAL WEATHER ROUNDUP
NATIONAL WEATHER SERVICE CHICAGO/ROMEOVILLE IL
200 AM CDT TUE JUL 26 2016

NOTE: "FAIR" INDICATES FEW OR NO CLOUDS BELOW 12,000 FEET WITH NO
SIGNIFICANT WEATHER AND/OR OBSTRUCTIONS TO VISIBILITY.

* THESE STATIONS ARE NOT UNDER NWS QUALITY CONTROL. THEY ALSO MAY NOT
  REPORT WEATHER SUCH AS PRECIPITATION OR FOG.

ILZ001-002-007-009-015-016-024-260800-
NORTHWEST ILLINOIS

CITY           SKY/WX    TMP DP  RH WIND       PRES   REMARKS
MOLINE         CLOUDY    68  64  87 CALM      30.04S
STERLING*      PTCLDY    66  64  93 CALM      30.05S
SAVANNA*       CLEAR     67  66  97 CALM      30.04S FOG
$$

ILZ003-004-008-010-011-017-018-260800-
NORTH CENTRAL ILLINOIS

CITY           SKY/WX    TMP DP  RH WIND       PRES   REMARKS
ROCKFORD       CLEAR     67  65  93 CALM      30.05S
FREEPORT*      PTCLDY    64  62  96 CALM      30.07S
ROCHELLE*      CLEAR     64  63  98 CALM      30.05S
DE KALB*       PTCLDY    69  65  89 CALM      30.05S
$$

ILZ005-006-012>014-019>023-260800-
NORTHEAST ILLINOIS

CITY           SKY/WX    TMP DP  RH WIND       PRES   REMARKS
CHICAGO-OHARE  PTCLDY    74  64  71 CALM      30.03S
CHICAGO-MIDWAY MOCLDY    77  63  61 E3        30.02F
AURORA         CLEAR     67  65  93 CALM      30.04S
LANSING*       CLOUDY    72  65  78 CALM      30.03S
WAUKEGAN       CLEAR     65  62  90 CALM      30.02F
DUPAGE AIRPORT CLEAR     69  64  84 N3        30.03F
KANKAKEE*      PTCLDY    70  68  95 CALM      30.03F
WHEELING       CLEAR     71  65  81 CALM      30.04S
MORRIS*        PTCLDY    69  67  93 CALM      30.01F
NORTHERLY ISL    N/A     72  65  78 CALM        N/A
$$

LMZ740>746-260800-
SOUTHERN LAKE MICHIGAN

STATION/POSITION SKY/WX   TEMP    WIND        PRES    VSBY  WAVE
                          AIR SEA DIR/SP/G                  HT/PER
                          (F)     (DEG/KT/KT) (MB)    (MI)  (FT/S)
SOUTHERN BUOY              73 73  230/  4/  4 1016.2R         0
WILMETTE HARBOR            69 68  340/  2/  2   N/A           0
HARRISON CRIB              76     170/  3/  3   N/A
BURNHAM HARBOR             71        CALM       N/A
CALUMET HARBOR             74      CALM  /  1 1016.3R
BURNS HARBOR               76     180/  3/  7 1017.3S
MICHIGAN CITY              74     130/  4/  4   N/A
MICHIGAN CITY 6N           75 75  160/  2/  4   N/A           1
ST. JOSEPH                 74 75  220/  4/  4 1016.5R         1/ 3
$$

ILZ025>027-034>036-040-047-049-050-058-095>099-260800-
WEST-CENTRAL ILLINOIS

CITY           SKY/WX    TMP DP  RH WIND       PRES   REMARKS
QUINCY         PTCLDY    71  67  87 CALM      30.04S
MACOMB*        CLOUDY    68  67  97 N5        30.05F
JACKSONVILLE*  CLOUDY    73  71  95 N5        30.02F
PITTSFIELD*    CLOUDY    73  71  93 CALM      30.04F
$$

ILZ028>032-037-038-041>044-048-051>054-059>061-260800-
CENTRAL ILLINOIS

CITY           SKY/WX    TMP DP  RH WIND       PRES   REMARKS
BLOOMINGTON    PTCLDY    71  68  90 CALM      30.05S
DECATUR        CLOUDY    74  70  87 NE3       30.02F
PEORIA         PTCLDY    71  69  93 CALM      30.03F
LACON*         CLOUDY    68  67  96 CALM      30.02F
LINCOLN*       PTCLDY    72  71  98 CALM      30.02F
SPRINGFIELD    MOCLDY    73  70  90 N3        30.02F
TAYLORVILLE    CLOUDY    73  72  99 MISG      30.02S
$$

ILZ033-039-045-046-055>057-062-063-260800-
EAST-CENTRAL ILLINOIS

CITY           SKY/WX    TMP DP  RH WIND       PRES   REMARKS
CHAMPAIGN      CLOUDY    74  70  87 NE5       30.03S
MATTOON        PTCLDY    74  71  91 NE3       30.00F
PARIS*         CLOUDY    73  73 100 CALM      30.02F
$$

ILZ079-100>102-260800-
SOUTHWEST ILLINOIS

CITY           SKY/WX    TMP DP  RH WIND       PRES   REMARKS
ALTON          CLOUDY    75  74  96 CALM      30.01S
BELLEVILLE     CLOUDY    76  76 100 CALM      29.98F
CAHOKIA*       CLOUDY    78  75  90 CALM      29.99F HX  81
SPARTA*        CLOUDY    76  75  97 N5        30.00F
$$

ILZ064>066-069>071-074>076-080>082-084>086-088>090-092>094-260800-
SOUTH-CENTRAL ILLINOIS

CITY           SKY/WX    TMP DP  RH WIND       PRES   REMARKS
CARBONDALE     PTCLDY    75  74  96 S5        29.99S FOG
CAIRO*           N/A     74  74 100 CALM      29.98F FOG
EFFINGHAM*     CLOUDY    76  75  97 CALM      30.01F
MARION         CLOUDY    77  75  94 CALM      30.00F FOG
MT. VERNON     MOCLDY    73  68  83 CALM      29.98F VSB 1/2
CENTRALIA*     CLOUDY    77  77 100 CALM      29.99F FOG
SALEM*         CLOUDY    77  75  92 CALM      29.99F
METROPOLIS*    CLOUDY    76  75  98 CALM      29.99F FOG
$$

ILZ067-068-072-073-078-083-087-091-260800-
SOUTHEAST ILLINOIS

CITY           SKY/WX    TMP DP  RH WIND       PRES   REMARKS
LAWRENCEVILLE  PTCLDY    76  76 100 CALM      29.99F FOG
FLORA*         PTCLDY    76  75  96 CALM      29.99F
FAIRFIELD*     PTCLDY    74  74 100 CALM      29.98F FOG
HARRISBURG*    FOG       73  73 100 CALM      29.99F VSB 1
ROBINSON*      PTCLDY    73  73 100 CALM      30.00F FOG
CARMI*           N/A     73  73 100 CALM      29.99S FOG
$$

ABBREVIATIONS USED IN REMARKS
   TC - TEMPERATURE IN CELSIUS
  WCI - WIND CHILL INDEX
   HX - HEAT INDEX
  VSB - VISIBILITY
$$





USA.gov is the U.S. government's official web portal to all federal, state and local government web resources and services.